Regional Weather Roundup
Issued by NWS

Home | Current Version | Previous Version | Graphics & Text | Print | Product List | Glossary Off
Versions: 1 2 3 4 5 6 7 8 9 10 11 12 13 14 15 16 17 18 19 20 21 22 23 24 25 26 27 28 29 30 31 32 33 34 35 36 37 38 39 40 41 42 43 44 45 46 47 48 49 50

000
ASUS43 KDMX 271007
RWRIA

WEATHER ROUNDUP FOR IOWA
NATIONAL WEATHER SERVICE DES MOINES IA
400 AM CST THU NOV 27 2014

NOTE: "FAIR" INDICATES FEW OR NO CLOUDS BELOW 12,000 FEET WITH NO
SIGNIFICANT WEATHER AND/OR OBSTRUCTIONS TO VISIBILITY.

* - THESE STATIONS ARE NOT NWS STATIONS...THUS NOT UNDER NWS
QUALITY CONTROL.  THEY ALSO DO NOT REPORT WEATHER SUCH
AS PRECIPITATION OR FOG.

IAZ001>003-012>014-020>022-031>034-043>046-271100-
   NORTHWEST IOWA

CITY           SKY/WX    TMP DP  RH WIND       PRES   REMARKS
CARROLL *      PTCLDY     5  -2  72 NW9       30.48R WCI  -9
CHEROKEE *     PTCLDY     1  -6  71 N6        30.49S WCI -10
DENISON *      CLOUDY     9   1  72 NW8       30.47S WCI  -4
LE MARS *      PTCLDY     3  -4  72 N8        30.52S WCI -10
ORANGE CITY *  CLEAR      0  -9  65 CALM      30.48S
SHELDON *      CLEAR     -4 -11  71 NW8       30.48S WCI -19
SIOUX CITY     CLOUDY    13   3  64 N7        30.52S WCI   3
SPENCER        PTCLDY   N/A N/A N/A NW12      30.48R
STORM LAKE *   CLEAR      1 -11  55 NW13      30.46R WCI -16
$$

IAZ055>058-069>071-079>083-090>094-271100-
   SOUTHWEST IOWA

CITY           SKY/WX    TMP DP  RH WIND       PRES   REMARKS
ATLANTIC *     PTCLDY    10   5  79 NW5       30.47F WCI   2
AUDUBON *      CLEAR      9   1  72 NW7       30.47S WCI  -3
CLARINDA *     CLEAR     18  14  86 NW7G15    30.51R WCI   8
COUNCIL BLFS * PTCLDY    16  12  86 NW7       30.47S WCI   6
CRESTON *      FLURRIES  16  14  93 NW16      30.46R WCI   0
HARLAN  *      PTCLDY    10   7  85 N7        30.51F WCI   0
LAMONI         CLOUDY    22  18  85 NW15      30.44R WCI   9
RED OAK *      CLEAR     16  10  79 N6        30.50S WCI   7
SHENANDOAH *   PTCLDY    18  14  86 N6        30.50F WCI   9
$$

IAZ047>049-059>061-072>074-084-271100-
   CENTRAL IOWA

CITY           SKY/WX    TMP DP  RH WIND       PRES   REMARKS
AMES           PTCLDY     8   2  76 NW12      30.45R WCI  -7
ANKENY *       CLOUDY    16  10  79 NW9       30.46R WCI   4
CHARITON *     CLOUDY    19  16  86 NW15      30.44R WCI   5
DES MOINES     FLURRIES  16   9  74 NW15      30.46R WCI   1
GRINNELL*      CLOUDY    16  12  86 NW13      30.41S WCI   2
KNOXVILLE *    CLOUDY    19  16  86 NW18      30.42R WCI   4
MARSHALLTOWN   CLOUDY    12   8  84 NW18      30.41R WCI  -6
PELLA *        CLOUDY    19  16  86 NW12      30.44S WCI   7
PERRY *          N/A      9   3  78 NW10G16   30.48R WCI  -6
$$

IAZ004>006-015-016-023>025-035-036-271100-
   NORTH CENTRAL IOWA

CITY           SKY/WX    TMP DP  RH WIND       PRES   REMARKS
ALGONA *       CLEAR     -2  -9  71 N12       30.46R WCI -20
CLARION *      CLEAR      0  -8  71 N12G20    30.45R WCI -18
ESTHERVILLE    PTCLDY    -6 -10  83 NW13      30.45S WCI -25
FORT DODGE *   PTCLDY     1  -8  66 NW6       30.48R WCI -10
MASON CITY     CLEAR      0  -5  79 NW15      30.43R WCI -19
FOREST CITY *  CLEAR      0  -6  78 NW9       30.43R WCI -16
IOWA FALLS *     N/A      5   1  85 NW14      30.43S WCI -12
$$

IAZ007>011-017>019-026>030-037>042-050>054-066-271100-
   NORTHEAST IOWA

CITY           SKY/WX    TMP DP  RH WIND       PRES   REMARKS
CEDAR RAPIDS   MIX PCPN  21  18  88 NW18G24   30.35R WCI   6
CHARLES CITY * CLOUDY    10   3  72 NW15      30.39R WCI  -6
CLINTON *      CLOUDY    21  18  86 NW9       30.34S WCI  11
DECORAH *      FLURRIES  18  14  86 NW17      30.33R WCI   2
DUBUQUE        CLOUDY    23  18  81 NW12      30.30R WCI  12
MONTICELLO *   MIX PCPN  25  19  80 NW14      30.33R WCI  13
OELWEIN *      CLOUDY    18  12  79 NW17      30.36R WCI   2
WATERLOO       CLOUDY    15  10  80 NW13      30.39R WCI   1
$$

IAZ064-065-067-068-078-271100-
   EAST CENTRAL IOWA

CITY           SKY/WX    TMP DP  RH WIND       PRES   REMARKS
DAVENPORT      CLOUDY    24  19  81 NW10      30.34R WCI  14
IOWA CITY      CLOUDY    25  20  81 NW12      30.38R WCI  14
MT. PLEASANT * CLOUDY    25  23  93 NW8       30.38S WCI  16
MUSCATINE *    CLOUDY    27  23  86 W6        30.38R WCI  20
QUAD CITIES    CLOUDY    26  20  77 NW10      30.34R WCI  16
$$

IAZ062-063-075>077-085>089-095>099-271100-
   SOUTHEAST IOWA

CITY           SKY/WX    TMP DP  RH WIND       PRES   REMARKS
BURLINGTON     CLOUDY    26  22  84 NW12      30.36R WCI  16
FAIRFIELD *    CLOUDY    23  19  86 NW17      30.39R WCI   9
FORT MADISON * CLOUDY    28  25  86 NW13      30.38R WCI  18
KEOKUK *       CLOUDY    28  25  86 NW12G20   30.38R WCI  18
OSKALOOSA *    CLOUDY    19  16  86 NW17      30.42R WCI   4
CENTERVILLE *  CLOUDY    23  21  93 W10       30.43R WCI  12
OTTUMWA        CLOUDY    21  16  81 NW18      30.41R WCI   6
WASHINGTON *   CLOUDY    25  27 100 W9        30.38R WCI  15
$$

ABBREVIATIONS USED IN REMARKS
   TC - TEMPERATURES IN CELSIUS
  WCI - WIND CHILL INDEX
   HX - HEAT INDEX
  VSB - VISIBILITY
$$




USA.gov is the U.S. government's official web portal to all federal, state and local government web resources and services.